Tracking 19817 objects as of 19-Aug-2019
HD Live streaming from Space Station
objects crossing your sky now

COSMOS 2251 DEB

Track COSMOS 2251 DEB now!
10-day predictions


NORAD ID: 34616
Int'l Code: 1993-036WM
Perigee: 614.5 km
Apogee: 631.6 km
Inclination: 74.0 °
Period: 97.0 minutes
Semi major axis: 6994 km
RCS: 0.0247 m2 (small)
Launch date: June 16, 1993
Source: Commonwealth of Independent States (former USSR) (CIS)
Launch site: PLESETSK MISSILE AND SPACE COMPLEX (PKMTR)

Note: This is SATELLITE DEBRIS
aabbcc
Your satellite tracking list
Your tracking list is empty




NASA's NSSDC Master Catalog

Two Line Element Set (TLE):
1 34616U 93036WM  19230.34213865 +.00002766 +00000-0 +33396-3 0  9996
2 34616 074.0251 338.6165 0012184 192.7121 228.5951 14.84257913554046
Source of the keplerian elements: AFSPC